DW4466 Weather Reports


Display with metric or nautical units.
time (UTC)temp
F
wind
direction
speed
MPH
gust
MPH
rain 1hr
in
rain 24hr
in
rain mn
in
humidity
%
barometer
mb
20260831120548 70 94 0.0 2.0 0.00 0.28 0.00 100 1017.9
20260831120030 69 82 0.0 3.0 0.00 0.28 0.00 99 1017.9
20260831115551 69 82 1.0 3.0 0.00 0.28 0.00 99 1018.1
20260831115028 69 88 1.0 3.0 0.00 0.28 0.00 99 1018.1
20260831114542 69 50 0.0 0.0 0.00 0.28 0.00 99 1018.2
20260831114016 68 89 0.0 0.0 0.00 0.28 0.00 99 1018.0
20260831113550 68 89 0.0 0.0 0.00 0.28 0.00 99 1017.9
20260831113021 68 89 0.0 0.0 0.00 0.28 0.00 99 1017.9
20260831112539 68 89 0.0 0.0 0.00 0.28 0.00 99 1017.7
20260831112055 68 89 0.0 0.0 0.00 0.28 0.00 99 1017.6
20260831111525 68 89 0.0 0.0 0.00 0.28 0.00 99 1017.7
20260831111057 68 89 0.0 0.0 0.00 0.28 0.00 99 1017.7
20260831110534 68 217 0.0 0.0 0.00 0.28 0.00 99 1017.5
20260831110006 68 217 0.0 0.0 0.00 0.28 0.00 99 1017.5
20260831105520 68 217 0.0 0.0 0.00 0.28 0.00 99 1017.4
20260831105052 68 217 0.0 0.0 0.00 0.28 0.00 99 1017.4
20260831104529 68 217 0.0 0.0 0.00 0.28 0.00 99 1017.3
20260831104054 68 128 0.0 0.0 0.00 0.28 0.00 99 1017.3
20260831103525 68 128 0.0 0.0 0.00 0.28 0.00 99 1017.3
20260831103105 68 128 0.0 0.0 0.00 0.28 0.00 99 1017.2
20260831102533 68 84 0.0 0.0 0.00 0.28 0.00 99 1017.2
20260831102051 68 84 0.0 0.0 0.00 0.28 0.00 99 1017.1
20260831101526 68 84 0.0 0.0 0.00 0.28 0.00 99 1017.1
20260831101054 68 84 0.0 0.0 0.00 0.28 0.00 99 1017.1
20260831100530 68 84 0.0 0.0 0.00 0.28 0.00 99 1017.1
20260831100108 68 84 0.0 0.0 0.00 0.28 0.00 99 1017.1
20260831100001 68 84 0.0 0.0 0.00 0.28 0.00 99 1017.1
20260831095535 68 84 0.0 1.0 0.00 0.28 0.00 99 1017.0
20260831095005 68 84 0.0 2.0 0.00 0.28 0.00 99 1016.9
20260831094542 68 84 0.0 2.0 0.00 0.28 0.00 99 1017.0
20260831094011 68 84 0.0 2.0 0.00 0.28 0.00 99 1017.0
20260831093544 67 84 1.0 3.0 0.00 0.28 0.00 99 1017.0
20260831093019 67 84 1.0 3.0 0.00 0.28 0.00 99 1017.0
20260831092547 67 74 2.0 3.0 0.00 0.28 0.00 99 1017.0
20260831092008 67 104 0.0 2.0 0.00 0.28 0.00 99 1016.9
20260831091556 67 181 0.0 0.0 0.00 0.28 0.00 99 1016.9
20260831091025 67 181 0.0 0.0 0.00 0.28 0.00 99 1016.9
20260831090553 67 181 0.0 1.0 0.00 0.28 0.00 99 1017.0
20260831090030 67 181 0.0 1.0 0.00 0.28 0.00 98 1016.9
20260831085548 67 181 0.0 1.0 0.00 0.28 0.00 98 1016.9
20260831085019 68 181 0.0 0.0 0.00 0.28 0.00 98 1016.9
20260831084551 68 181 0.0 0.0 0.00 0.28 0.00 98 1016.9
20260831084023 68 181 0.0 0.0 0.00 0.28 0.00 99 1016.9
20260831083555 68 169 0.0 1.0 0.00 0.28 0.00 99 1016.9
20260831083027 68 169 0.0 1.0 0.00 0.28 0.00 99 1016.9
20260831082505 68 169 0.0 2.0 0.00 0.28 0.00 99 1016.9
20260831082038 68 226 0.0 3.0 0.00 0.28 0.00 99 1016.9
20260831081527 68 178 1.0 5.0 0.00 0.28 0.00 99 1016.9
20260831081043 68 257 2.0 5.0 0.00 0.28 0.00 99 1016.9
20260831080558 68 152 0.0 2.0 0.00 0.28 0.00 99 1016.8
20260831080500 68 152 0.0 2.0 0.00 0.28 0.00 99 1016.8
20260831080055 68 170 0.0 2.0 0.00 0.28 0.00 99 1016.6
20260831075509 68 171 0.0 2.0 0.00 0.28 0.00 99 1016.7
20260831075041 68 229 0.0 2.0 0.00 0.28 0.00 99 1016.7
20260831074513 68 198 0.0 3.0 0.00 0.28 0.00 99 1016.5
20260831074047 68 148 1.0 3.0 0.00 0.28 0.00 99 1016.7
20260831073521 68 138 1.0 3.0 0.00 0.28 0.00 98 1016.5
20260831073112 68 60 0.0 0.0 0.00 0.28 0.00 99 1016.6
20260831072524 68 60 0.0 0.0 0.00 0.28 0.00 99 1016.3
20260831072057 68 60 0.0 0.0 0.00 0.28 0.00 99 1016.3
20260831071535 68 60 0.0 0.0 0.00 0.28 0.00 99 1016.3
20260831071047 68 60 0.0 0.0 0.00 0.28 0.00 99 1016.3
20260831070519 68 60 0.0 0.0 0.00 0.28 0.00 99 1016.3
20260831070055 68 60 0.0 0.0 0.00 0.28 0.00 99 1016.3
20260831065533 68 60 0.0 0.0 0.00 0.28 0.00 98 1016.3
20260831065058 68 60 0.0 0.0 0.00 0.28 0.00 98 1016.3
20260831065003 68 60 0.0 0.0 0.00 0.28 0.00 99 1016.4
20260831064542 68 60 0.0 0.0 0.00 0.28 0.00 98 1016.4
20260831064052 68 60 0.0 0.0 0.00 0.28 0.00 98 1016.5
20260831063527 68 60 0.0 0.0 0.00 0.28 0.00 98 1016.4
20260831063006 68 60 0.0 0.0 0.00 0.28 0.00 98 1016.4
20260831062539 68 60 0.0 0.0 0.00 0.28 0.00 98 1016.5
20260831062009 68 60 0.0 0.0 0.00 0.28 0.00 98 1016.5
20260831061543 68 60 0.0 0.0 0.00 0.28 0.00 98 1016.7
20260831061059 68 60 0.0 0.0 0.00 0.28 0.00 98 1016.7
20260831061001 68 60 0.0 0.0 0.00 0.28 0.00 98 1016.7
20260831060528 68 60 0.0 0.0 0.00 0.28 0.00 98 1016.8
20260831060003 68 60 0.0 0.0 0.00 0.28 0.00 98 1016.8
20260831055535 68 60 0.0 0.0 0.00 0.28 0.00 98 1016.7
20260831055007 68 359 0.0 0.0 0.00 0.28 0.00 98 1016.7
20260831054527 69 359 0.0 0.0 0.00 0.28 0.00 98 1016.7
20260831054044 69 359 0.0 0.0 0.00 0.28 0.00 98 1016.7
20260831053511 69 359 0.0 0.0 0.00 0.28 0.00 98 1016.8
20260831053047 69 359 0.0 0.0 0.00 0.28 0.28 98 1016.7
20260831052518 69 359 0.0 0.0 0.00 0.28 0.28 98 1016.8
20260831052054 69 359 0.0 0.0 0.00 0.28 0.28 98 1017.0
20260831051530 69 359 0.0 0.0 0.00 0.28 0.28 98 1017.0
20260831051038 69 359 0.0 0.0 0.00 0.28 0.28 98 1017.0
20260831050510 69 359 0.0 2.0 0.00 0.28 0.28 98 1017.0
20260831050046 69 359 0.0 2.0 0.00 0.28 0.28 98 1017.0
20260831045517 69 359 0.0 2.0 0.00 0.28 0.28 98 1017.0
20260831045051 69 359 0.0 2.0 0.00 0.28 0.28 98 1017.0
20260831044515 69 359 1.0 2.0 0.00 0.28 0.28 98 1017.0
20260831044046 69 359 1.0 2.0 0.00 0.28 0.28 98 1017.0
20260831043523 69 262 0.0 2.0 0.00 0.28 0.28 98 1017.0
20260831043054 69 262 0.0 2.0 0.00 0.28 0.28 98 1017.0
20260831042524 69 266 0.0 2.0 0.00 0.28 0.28 98 1017.1
20260831042058 70 233 0.0 0.0 0.00 0.28 0.28 98 1017.0
20260831041517 70 233 0.0 0.0 0.00 0.28 0.28 98 1017.3
20260831041054 70 233 0.0 0.0 0.00 0.28 0.28 98 1017.1
20260831040519 70 152 0.0 0.0 0.00 0.28 0.28 98 1017.1
20260831040054 70 152 0.0 0.0 0.00 0.28 0.28 98 1017.2
20260831035528 70 152 0.0 0.0 0.00 0.28 0.28 98 1017.2
20260831035053 70 152 0.0 0.0 0.00 0.28 0.28 98 1017.3
20260831034528 70 152 0.0 0.0 0.00 0.28 0.28 98 1017.5
20260831034057 70 152 0.0 0.0 0.00 0.28 0.28 98 1017.4
20260831033528 70 152 0.0 0.0 0.00 0.28 0.28 98 1017.4
20260831033100 70 152 0.0 0.0 0.00 0.28 0.28 98 1017.5
20260831033002 70 152 0.0 0.0 0.00 0.28 0.28 98 1017.5
20260831032536 70 152 0.0 0.0 0.00 0.28 0.28 98 1017.4
20260831032011 70 152 0.0 0.0 0.00 0.28 0.28 98 1017.5
20260831031524 70 152 0.0 0.0 0.00 0.28 0.28 98 1017.5
20260831031057 70 152 0.0 0.0 0.00 0.28 0.28 98 1017.5
20260831030536 70 152 0.0 0.0 0.00 0.28 0.28 98 1017.5
20260831030011 70 152 0.0 0.0 0.00 0.28 0.28 98 1017.4
20260831025544 70 152 0.0 0.0 0.00 0.28 0.28 98 1017.4
20260831025058 70 152 0.0 0.0 0.00 0.28 0.28 98 1017.4
20260831025003 70 152 0.0 0.0 0.00 0.28 0.28 98 1017.5
20260831024531 70 152 0.0 0.0 0.00 0.28 0.28 98 1017.5
20260831024004 69 152 0.0 0.0 0.00 0.28 0.28 98 1017.5
20260831023537 69 152 0.0 0.0 0.00 0.28 0.28 98 1017.5
20260831023011 69 152 0.0 0.0 0.00 0.28 0.28 98 1017.6
20260831022548 69 152 0.0 0.0 0.00 0.28 0.28 98 1017.6
20260831022016 69 152 0.0 0.0 0.00 0.28 0.28 98 1017.7
20260831021544 69 152 0.0 0.0 0.00 0.28 0.28 97 1017.8
20260831021010 69 152 0.0 0.0 0.00 0.28 0.28 97 1017.8
20260831020542 70 152 0.0 0.0 0.00 0.28 0.28 97 1017.7
20260831020011 70 152 0.0 0.0 0.00 0.28 0.28 97 1017.7
20260831015546 70 152 0.0 0.0 0.00 0.28 0.28 97 1017.7
20260831015027 70 152 0.0 0.0 0.00 0.28 0.28 97 1017.8
20260831014555 70 152 0.0 0.0 0.00 0.28 0.28 97 1017.9
20260831014027 70 152 0.0 0.0 0.00 0.28 0.28 97 1017.9
20260831013504 70 152 0.0 0.0 0.00 0.28 0.28 97 1018.0
20260831013030 70 152 0.0 0.0 0.00 0.28 0.28 97 1018.1
20260831012507 70 152 0.0 0.0 0.00 0.28 0.28 97 1018.1
20260831012039 70 152 0.0 0.0 0.00 0.28 0.28 97 1018.1
20260831011553 70 152 0.0 0.0 0.00 0.28 0.28 97 1018.1
20260831011030 70 152 0.0 0.0 0.00 0.28 0.28 96 1018.0
20260831010505 70 152 0.0 0.0 0.00 0.28 0.28 96 1017.8
20260831010101 70 152 0.0 0.0 0.00 0.28 0.28 96 1017.8
20260831005519 71 152 0.0 0.0 0.00 0.28 0.28 96 1017.7
20260831005052 71 152 0.0 0.0 0.00 0.28 0.28 96 1017.6
20260831004532 71 152 0.0 0.0 0.00 0.28 0.28 96 1017.5
20260831004047 71 128 0.0 0.0 0.00 0.28 0.28 96 1017.4
20260831003519 71 128 0.0 0.0 0.00 0.28 0.28 96 1017.3
20260831003103 71 128 0.0 0.0 0.00 0.28 0.28 96 1017.2
20260831002528 71 128 0.0 0.0 0.00 0.28 0.28 95 1017.2
20260831002057 71 138 0.0 0.0 0.00 0.28 0.28 95 1016.9
20260831001523 71 311 0.0 0.0 0.00 0.28 0.28 95 1016.9
20260831001044 72 250 0.0 0.0 0.00 0.28 0.28 95 1017.0
20260831000514 72 278 0.0 0.0 0.00 0.28 0.28 94 1017.0
20260831000046 72 225 0.0 0.0 0.00 0.28 0.28 94 1017.0
20260830235516 72 225 0.0 0.0 0.00 0.28 0.28 94 1016.9
20260830235049 72 225 0.0 0.0 0.00 0.28 0.28 93 1016.9
20260830234525 73 225 0.0 0.0 0.00 0.28 0.28 93 1017.0
20260830234055 73 233 0.0 0.0 0.01 0.28 0.28 93 1017.0
20260830233535 73 233 0.0 0.0 0.04 0.28 0.28 93 1017.0
20260830233100 73 255 0.0 3.0 0.09 0.28 0.28 93 1016.9
20260830233002 73 228 0.0 3.0 0.11 0.28 0.28 93 1016.8
20260830232524 73 303 0.0 3.0 0.22 0.28 0.28 92 1016.8
20260830232040 74 244 0.0 3.0 0.27 0.28 0.28 92 1016.7
20260830231511 74 227 0.0 3.0 0.28 0.28 0.28 92 1016.7
20260830231042 73 195 0.0 3.0 0.28 0.28 0.28 93 1016.7
20260830230517 73 238 0.0 3.0 0.28 0.28 0.28 93 1016.6
20260830230047 73 279 1.0 4.0 0.28 0.28 0.28 94 1016.6
20260830225509 73 296 0.0 6.0 0.28 0.28 0.28 94 1016.5
20260830225039 73 295 2.0 7.0 0.28 0.28 0.28 94 1016.5
20260830224515 73 271 3.0 8.0 0.28 0.28 0.28 93 1016.8
20260830224049 73 217 3.0 8.0 0.27 0.27 0.28 91 1016.5
20260830223526 73 256 2.0 10.0 0.25 0.25 0.25 90 1017.1
20260830223059 74 347 3.0 14.0 0.19 0.19 0.20 89 1017.3
20260830222529 75 25 8.0 20.0 0.05 0.05 0.07 87 1017.5
20260830222005 78 27 9.0 20.0 0.01 0.01 0.01 83 1017.2
20260830221541 80 27 9.0 19.0 0.00 0.00 0.00 78 1017.3
20260830221013 81 209 0.0 0.0 0.00 0.00 0.00 77 1016.6
20260830220549 82 209 0.0 0.0 0.00 0.00 0.00 75 1016.4
20260830220028 83 209 0.0 0.0 0.00 0.00 0.00 75 1016.2
20260830215558 83 209 0.0 0.0 0.00 0.00 0.00 76 1016.2
20260830215024 84 209 0.0 4.0 0.00 0.00 0.00 72 1016.1
20260830214557 84 209 0.0 4.0 0.00 0.00 0.00 71 1016.0
20260830214029 85 208 0.0 2.0 0.00 0.00 0.00 69 1016.0
20260830213506 86 281 0.0 6.0 0.00 0.00 0.00 68 1016.2
20260830213031 86 269 0.0 4.0 0.00 0.00 0.00 69 1016.0
20260830212507 86 269 1.0 4.0 0.00 0.00 0.00 67 1016.0
20260830212041 86 302 1.0 4.0 0.00 0.00 0.00 69 1016.0
20260830211511 85 219 1.0 5.0 0.00 0.00 0.00 68 1016.1
20260830211043 85 297 1.0 3.0 0.00 0.00 0.00 69 1016.2
20260830210514 85 335 0.0 5.0 0.00 0.00 0.00 73 1016.2
20260830210049 85 326 3.0 5.0 0.00 0.00 0.00 71 1016.2
20260830205525 85 315 1.0 5.0 0.00 0.00 0.00 71 1016.3
20260830205054 85 265 0.0 6.0 0.00 0.00 0.00 72 1016.4
20260830204537 84 306 1.0 6.0 0.00 0.00 0.00 74 1016.4
20260830204007 84 300 0.0 8.0 0.00 0.00 0.00 75 1016.4
20260830203546 84 324 2.0 8.0 0.00 0.00 0.00 75 1016.5
20260830203013 85 15 3.0 7.0 0.00 0.00 0.00 73 1016.5
20260830202552 85 306 2.0 8.0 0.00 0.00 0.00 75 1016.4
20260830202021 85 34 2.0 5.0 0.00 0.00 0.00 75 1016.5
20260830201552 84 338 1.0 5.0 0.00 0.00 0.00 75 1016.5
20260830201032 83 324 0.0 4.0 0.00 0.00 0.00 79 1016.5
20260830200534 82 287 2.0 4.0 0.00 0.00 0.00 79 1016.6
20260830200011 82 15 0.0 4.0 0.00 0.00 0.00 78 1016.8
20260830195546 82 12 2.0 5.0 0.00 0.00 0.00 79 1016.8
20260830195019 82 355 0.0 5.0 0.00 0.00 0.00 77 1016.9
20260830194602 82 6 2.0 4.0 0.00 0.00 0.00 78 1017.0
20260830194021 82 33 0.0 3.0 0.00 0.00 0.00 77 1017.0
20260830193557 82 17 1.0 3.0 0.00 0.00 0.00 76 1017.0
20260830193024 83 360 0.0 3.0 0.00 0.00 0.00 78 1017.1
20260830192556 83 288 0.0 7.0 0.00 0.00 0.00 75 1017.0
20260830192026 83 323 2.0 5.0 0.00 0.00 0.00 73 1017.0
20260830191603 84 337 1.0 8.0 0.00 0.00 0.00 72 1017.0
20260830191501 84 323 1.0 10.0 0.00 0.00 0.00 73 1017.1
20260830191040 84 245 3.0 11.0 0.00 0.00 0.00 73 1017.1
20260830190549 85 301 3.0 11.0 0.00 0.00 0.00 72 1017.1
20260830190019 85 296 4.0 10.0 0.00 0.00 0.00 73 1017.2
20260830185551 84 254 2.0 9.0 0.00 0.00 0.00 76 1017.3
20260830185029 84 267 3.0 9.0 0.00 0.00 0.00 75 1017.4
20260830184555 84 11 1.0 6.0 0.00 0.00 0.00 74 1017.4
20260830184024 84 281 1.0 7.0 0.00 0.00 0.00 76 1017.6
20260830183555 84 283 1.0 8.0 0.00 0.00 0.00 73 1017.7
20260830183027 84 322 4.0 10.0 0.00 0.00 0.00 73 1017.8
20260830182559 84 254 6.0 10.0 0.00 0.00 0.00 72 1017.8
20260830182028 84 348 3.0 11.0 0.00 0.00 0.00 74 1017.8
20260830181545 84 279 4.0 11.0 0.00 0.00 0.00 73 1017.9
20260830181017 84 271 3.0 10.0 0.00 0.00 0.00 73 1017.9
20260830180551 84 287 2.0 15.0 0.00 0.00 0.00 76 1017.9
20260830180018 84 260 7.0 15.0 0.00 0.00 0.00 75 1018.0
20260830175548 84 268 5.0 12.0 0.00 0.00 0.00 75 1018.0
20260830175025 83 283 2.0 11.0 0.00 0.00 0.00 75 1018.1
20260830174621 83 282 6.0 11.0 0.00 0.00 0.00 75 1018.3
20260830174033 83 267 4.0 10.0 0.00 0.00 0.00 75 1018.4
20260830173504 83 349 2.0 10.0 0.00 0.00 0.00 77 1018.4
20260830173042 83 313 3.0 9.0 0.00 0.00 0.00 77 1018.4
20260830172552 82 310 1.0 14.0 0.00 0.00 0.00 78 1018.6
20260830172026 82 292 8.0 11.0 0.00 0.00 0.00 78 1018.7
20260830171610 81 257 4.0 11.0 0.00 0.00 0.00 78 1018.7
20260830171502 81 349 4.0 11.0 0.00 0.00 0.00 79 1018.8
20260830171034 81 317 4.0 10.0 0.00 0.00 0.00 79 1018.8
20260830170507 81 261 2.0 12.0 0.00 0.00 0.00 79 1019.1
20260830170023 81 267 5.0 11.0 0.00 0.00 0.00 79 1019.3
20260830165557 81 273 4.0 11.0 0.00 0.00 0.00 81 1019.3
20260830165032 80 246 5.0 12.0 0.00 0.00 0.00 81 1019.3
20260830164511 80 347 3.0 8.0 0.00 0.00 0.00 82 1019.3
20260830164036 79 329 2.0 9.0 0.00 0.00 0.00 83 1019.3
20260830163550 79 169 4.0 10.0 0.00 0.00 0.00 83 1019.4
20260830163030 79 242 4.0 11.0 0.00 0.00 0.00 84 1019.5
20260830162556 78 267 6.0 11.0 0.00 0.00 0.00 84 1019.5
20260830162023 78 354 3.0 12.0 0.00 0.00 0.00 86 1019.6
20260830161610 77 236 7.0 12.0 0.00 0.00 0.00 86 1019.6
20260830161024 76 304 4.0 12.0 0.00 0.00 0.00 89 1019.7
20260830160605 75 217 4.0 12.0 0.00 0.00 0.00 89 1019.8
20260830160502 75 245 3.0 11.0 0.00 0.00 0.00 89 1019.8
20260830160028 75 281 3.0 10.0 0.00 0.00 0.00 88 1019.9
20260830155600 75 323 1.0 4.0 0.00 0.00 0.00 89 1019.9
20260830155502 75 344 1.0 4.0 0.00 0.00 0.00 89 1019.9
20260830155036 75 274 1.0 5.0 0.00 0.00 0.00 88 1019.9
20260830154511 75 223 2.0 10.0 0.00 0.00 0.00 87 1020.0
20260830154041 75 299 2.0 12.0 0.00 0.00 0.00 87 1020.1
20260830153555 76 331 3.0 12.0 0.00 0.00 0.00 87 1020.0
20260830153035 76 291 4.0 7.0 0.00 0.00 0.00 87 1020.0
20260830152504 76 297 3.0 11.0 0.00 0.00 0.00 87 1020.0
20260830152036 76 236 4.0 11.0 0.00 0.00 0.00 87 1019.9
20260830151529 76 278 5.0 10.0 0.00 0.00 0.00 87 1020.0
20260830151030 76 256 4.0 8.0 0.00 0.00 0.00 87 1019.9
20260830150600 76 354 1.0 10.0 0.00 0.00 0.00 88 1019.9
20260830150504 76 325 0.0 10.0 0.00 0.00 0.00 88 1019.9
20260830150036 76 318 5.0 11.0 0.00 0.00 0.00 87 1019.9
20260830145508 76 280 5.0 11.0 0.00 0.00 0.00 87 1019.8
20260830145037 76 338 3.0 10.0 0.00 0.00 0.00 87 1019.8
20260830144506 75 344 3.0 13.0 0.00 0.00 0.00 87 1019.8
20260830144042 75 278 3.0 11.0 0.00 0.00 0.00 89 1019.8
20260830143515 75 303 5.0 11.0 0.00 0.00 0.00 88 1019.8
20260830143048 75 265 2.0 9.0 0.00 0.00 0.00 89 1019.9
20260830142516 74 265 2.0 9.0 0.00 0.00 0.00 89 1019.8
20260830142050 74 327 3.0 9.0 0.00 0.00 0.00 89 1019.9
20260830141528 74 287 2.0 8.0 0.00 0.00 0.00 90 1019.8
20260830141043 74 310 4.0 9.0 0.00 0.00 0.00 90 1019.8
20260830140512 74 49 2.0 9.0 0.00 0.00 0.00 91 1019.8
20260830135518 73 293 3.0 7.0 0.00 0.00 0.00 93 1019.9
20260830135048 73 14 4.0 7.0 0.00 0.00 0.00 92 1019.9
20260830134524 72 280 2.0 8.0 0.00 0.00 0.00 93 1020.1
20260830134100 72 317 4.0 9.0 0.00 0.00 0.00 93 1020.1
20260830134003 72 331 2.0 8.0 0.00 0.00 0.00 94 1020.1
20260830133539 72 290 0.0 5.0 0.00 0.00 0.00 95 1020.0
20260830133006 71 238 0.0 5.0 0.00 0.00 0.00 95 1020.1
20260830132540 71 7 0.0 3.0 0.00 0.00 0.00 95 1020.3
20260830132016 70 297 0.0 4.0 0.00 0.00 0.00 96 1020.3
20260830131549 70 317 1.0 4.0 0.00 0.00 0.00 96 1020.3
20260830131014 70 5 1.0 3.0 0.00 0.00 0.00 96 1020.3
20260830130548 69 329 0.0 4.0 0.00 0.00 0.00 97 1020.4
20260830130030 69 283 1.0 4.0 0.00 0.00 0.00 96 1020.5
20260830125601 69 271 1.0 5.0 0.00 0.00 0.00 97 1020.5
20260830125029 68 15 0.0 0.0 0.00 0.00 0.00 96 1020.6
20260830124547 68 15 0.0 0.0 0.00 0.00 0.00 96 1020.7
20260830124019 68 15 0.0 0.0 0.00 0.00 0.00 97 1020.7
20260830123555 68 15 0.0 0.0 0.00 0.00 0.00 97 1020.6
20260830123034 68 15 0.0 0.0 0.00 0.00 0.00 97 1020.6
20260830122555 67 15 0.0 0.0 0.00 0.00 0.00 97 1020.6
20260830122032 67 15 0.0 0.0 0.00 0.00 0.00 97 1020.7
20260830121545 67 15 0.0 0.0 0.00 0.00 0.00 97 1020.7
20260830121017 67 15 0.0 0.0 0.00 0.00 0.00 97 1020.6